Tracking 35280 objects as of 7-Sep-2026
HD Live streaming from Space Station
objects crossing your sky now

DELTA 2 R/B


DELTA 2 R/B is no longer on orbit


NORAD ID: 26860
Int'l Code: 2001-027B
Launch date: June 30, 2001
Source: United States (US)
Launch site: AIR FORCE EASTERN TEST RANGE (AFETR)
Decay date: 2001-07-07

Note: This is a ROCKET BODY
Your satellite tracking list
Your tracking list is empty




NASA's NSSDC Master Catalog

Two Line Element Set (TLE):
1 26860U 01027B   01188.78128778 +.40647308 -10667-4 +27386-3 0  9994
2 26860 026.8374 345.2768 0009647 186.6493 173.8024 16.52770559001128
Source of the keplerian elements: AFSPC